GFSMA_con_sbcape_273.txt.gz
CAPE
76 13 0 0 0 250 591 883 1041 1107 1090 1007 946 781 743 583 563 1255 1070 2041 2728 2335 1922 770 972 1227 1212 1922 2598 3024 2557 2120 2356 2194 2326 2865 3004 2957 2951 2799 2629 2752 2002
146 0 87 286 510 861 844 802 816 746 958 848 953 1037 961 1034 1083 1002 918 1492 2521 2057 1667 1200 1492 1643 1562 1571 1754 2017 2322 2339 2149 2374 2389 2121 2157 2431 1554 2169 2536 2488 2073
0 93 660 809 952 858 927 1088 742 444 214 46 19 45 1081 1330 962 697 682 967 1678 1966 1977 1509 1480 1445 1472 1529 1598 1674 1771 1793 1687 1726 1935 2321 2064 1262 1345 1406 1836 2111 1460
0 436 1023 1139 971 472 578 670 412 417 57 3 0 11 208 687 512 378 406 489 758 964 1464 1478 1304 1142 1256 1276 1375 1459 1476 1445 1358 1468 1486 1292 1263 1413 1015 944 671 1591 1518
407 710 737 939 829 822 910 722 640 702 29 7 23 26 16 109 165 287 278 222 285 453 579 905 680 676 633 702 660 446 438 483 537 636 735 845 934 1059 1061 969 689 1377 1227
809 410 401 669 1095 1046 1024 637 447 340 48 8 0 0 0 106 157 206 184 63 47 16 115 261 202 161 534 376 355 353 308 303 307 247 178 109 116 412 714 993 797 322 1092
0 263 427 0 698 676 1309 861 993 345 335 8 0 0 0 215 195 129 55 15 9 0 0 83 0 4 272 979 648 262 125 338 309 202 106 76 87 65 160 423 758 693 489
861 565 62 2 227 1259 754 935 881 172 120 43 0 0 0 1 15 146 62 33 9 3 23 32 4 1 33 397 496 317 418 441 253 163 57 20 22 59 61 241 459 546 496
682 434 89 27 286 1381 970 913 834 337 169 153 0 0 0 8 0 0 0 0 20 37 37 96 1 0 0 13 398 422 419 343 267 161 64 0 4 33 64 93 318 523 311
395 807 240 323 324 1255 1159 1148 631 906 203 227 38 0 0 0 0 0 0 0 0 11 4 18 3 1 2 1 177 324 430 368 136 114 47 8 2 13 29 42 127 501 505
717 587 671 710 1324 1029 1131 1105 1314 656 689 297 362 54 0 0 0 0 0 0 0 0 0 0 0 1 8 31 56 131 239 164 113 40 24 19 18 3 10 18 32 286 643
233 64 436 673 721 1624 1420 1481 1270 1006 705 323 475 209 0 0 25 0 0 0 0 0 0 1 1 0 7 18 78 156 162 95 25 16 18 10 13 9 36 54 27 204 633
58 469 338 1172 1082 1241 1503 1142 1254 1347 1024 392 365 133 0 4 1 0 0 0 0 0 0 0 0 0 2 7 4 150 202 101 21 7 6 30 10 1 33 43 74 81 396
157 194 89 972 1215 1084 1245 1001 1238 1387 1194 474 340 176 13 30 3 0 0 0 0 1 0 0 0 3 14 10 27 239 121 126 20 13 3 0 0 0 45 102 53 105 296
22 18 539 683 570 574 309 380 391 785 1228 514 326 240 8 20 21 9 5 0 0 0 1 0 0 5 13 40 75 32 8 85 32 23 4 0 0 2 33 80 133 47 76
467 296 214 186 235 279 297 355 446 433 737 732 274 185 73 53 15 4 3 0 0 0 0 0 0 0 6 24 41 9 4 102 78 36 1 0 0 0 62 20 46 55 31
162 198 51 29 139 241 304 428 476 566 577 478 276 110 117 0 14 6 1 0 0 0 0 0 0 0 0 23 30 0 24 0 6 25 0 0 0 0 13 0 0 0 0
364 279 187 157 266 534 739 784 825 799 785 458 333 327 196 13 1 3 0 0 0 0 0 0 0 0 0 0 0 3 47 3 0 17 0 0 0 0 2 0 0 0 0
424 617 1128 1510 1570 1172 900 963 1049 946 656 628 315 394 326 13 8 1 0 0 0 0 0 0 0 0 0 0 0 0 0 0 0 9 27 5 1 0 0 0 0 0 0
1136 582 944 842 792 783 752 641 769 915 834 652 450 521 285 38 12 1 0 0 0 0 0 0 0 0 0 0 0 0 0 0 2 0 0 0 1 2 0 0 0 0 0
349 284 636 794 756 829 998 1031 512 528 384 318 421 433 203 55 0 0 0 0 0 0 0 0 0 0 0 0 0 0 0 0 0 0 0 0 0 0 0 4 1 0 0
559 821 579 701 763 860 1052 45 1 110 179 162 294 29 29 56 3 0 0 0 0 0 0 0 0 0 0 0 0 0 0 0 0 0 0 0 0 1 0 0 0 0 0
602 629 647 556 648 718 731 1 0 1 32 193 88 1 1 0 0 0 0 0 0 0 0 0 0 0 0 0 0 0 0 0 0 0 0 0 1 0 0 0 0 0 0
486 455 286 457 770 695 0 1 1 29 105 151 9 0 0 0 0 0 0 0 0 0 0 0 0 0 0 0 0 0 0 0 0 0 0 0 1 0 0 0 0 0 0
42 54 107 16 1 1 1 1 2 120 324 58 0 0 0 0 0 0 0 0 0 0 0 0 0 0 0 0 0 0 0 0 0 0 1 0 1 1 1 1 0 0 0
0 0 8 3 1 1 1 1 1 1 38 205 3 0 0 0 0 0 0 0 0 0 0 0 0 0 0 0 0 0 0 0 0 0 0 0 1 0 1 1 2 1 0

GFSMA_con_sbcape_276.txt.gz
CAPE
62 0 0 0 0 81 437 756 923 1073 1222 1181 1105 1051 1017 983 667 506 1662 1757 2523 1791 2195 2321 1165 776 921 1171 1928 2434 2761 2315 2577 2206 2076 2562 2414 2141 1857 2058 1326 779 1726
89 0 23 138 364 837 1045 978 970 952 933 939 973 1152 1137 1215 1046 1075 1415 1437 2635 2225 2336 1130 905 1293 1366 1516 1627 1982 2362 2399 2676 2741 2309 2120 2300 1780 2031 1721 1795 2277 1428
22 0 463 851 1157 1156 666 1120 713 527 513 103 52 180 540 1245 1293 1314 1265 1249 2213 2468 1878 1776 1675 1628 1409 1432 1401 1532 1699 1566 1564 1636 1876 2273 1787 1469 1070 895 1298 1382 1231
118 0 1027 1177 1197 457 664 876 716 702 450 100 105 43 53 728 1289 975 713 798 1003 1411 1814 2001 1927 1503 1266 1360 1398 1485 1494 1447 1371 1414 1451 1452 1406 1612 954 577 995 1037 1054
575 40 860 973 869 910 847 755 669 787 227 147 45 18 38 178 379 566 443 406 683 712 978 1782 1372 1196 974 924 797 804 899 854 733 831 1005 1141 1231 1114 1828 1096 277 898 912
848 755 642 696 1096 1005 998 635 501 369 45 2 0 0 121 171 193 329 221 219 198 174 383 478 786 583 685 562 512 367 356 273 266 234 184 275 745 916 1171 1326 862 857 488
737 80 413 23 659 890 1297 1020 959 296 417 6 0 0 14 197 149 115 112 87 29 22 17 206 318 220 401 779 709 442 292 267 268 180 120 168 149 285 568 932 1254 974 709
370 424 469 36 186 1463 1092 1229 844 216 66 90 32 0 0 0 0 106 133 58 28 32 36 84 206 41 111 536 1008 592 125 399 312 201 92 90 138 114 231 451 836 677 275
489 868 210 13 151 1304 1599 1118 706 385 188 251 0 24 23 20 0 0 0 4 100 96 70 150 213 36 8 62 405 741 458 421 446 220 86 44 75 85 111 197 432 500 637
498 905 506 281 165 1024 1315 1302 934 786 301 317 73 0 0 0 10 35 0 0 5 27 39 58 72 20 3 58 99 330 601 380 337 243 135 106 99 86 87 131 276 542 363
261 676 899 1119 933 1307 1180 1283 950 689 599 334 256 124 1 39 1 0 8 3 0 3 4 9 2 3 3 28 71 216 316 321 200 185 119 154 151 94 96 99 160 515 784
299 204 284 751 725 1075 1471 991 1078 826 479 260 179 219 0 9 66 23 2 0 0 1 3 6 4 1 2 56 168 184 246 252 180 107 90 118 117 110 130 121 116 323 662
189 273 129 342 1170 1015 1527 1034 1157 794 677 431 189 173 2 13 39 11 0 12 0 0 1 1 0 2 3 30 98 195 258 183 113 54 35 64 83 41 71 104 153 203 545
286 188 218 199 833 876 1111 976 945 1017 885 877 176 91 8 5 0 19 1 1 2 1 5 0 0 1 23 34 90 247 307 144 43 33 25 8 1 0 71 149 112 142 280
0 55 73 487 501 648 637 526 565 635 867 1069 181 92 10 4 2 5 0 0 0 0 7 1 1 2 15 59 81 53 134 92 33 16 0 0 0 0 52 183 177 93 138
179 407 323 285 286 325 407 448 402 411 510 685 246 257 78 4 1 8 2 2 2 0 0 2 1 7 13 74 73 20 30 177 57 15 0 0 0 0 66 137 146 99 87
270 232 277 165 130 243 345 441 378 535 611 490 330 362 225 67 40 15 5 3 2 0 0 4 2 1 2 38 32 3 75 131 158 7 0 0 0 0 26 15 8 16 29
439 418 369 286 330 521 983 1392 1351 1288 779 868 936 487 320 148 111 68 18 1 0 0 0 0 4 4 2 21 34 10 157 46 32 18 0 0 0 0 5 0 0 0 0
698 581 870 1313 1749 1738 1206 1042 1013 1194 1300 1171 941 709 348 164 63 5 3 0 0 0 0 0 3 1 5 5 2 3 44 9 1 20 27 0 0 0 0 0 0 0 0
1386 1177 975 1259 1058 1003 1115 1181 1088 1179 1059 896 905 834 795 239 76 23 2 1 0 0 0 0 2 2 2 8 10 7 13 13 5 6 16 0 1 0 4 0 0 0 0
578 480 678 786 829 946 1028 1163 636 871 682 626 541 619 795 455 71 11 1 1 0 0 0 0 0 1 4 5 7 2 6 12 1 0 1 1 10 5 1 2 1 0 0
518 758 809 772 838 1029 463 14 1 128 121 265 413 276 77 143 42 0 0 0 0 0 0 0 0 1 2 1 1 0 1 2 2 0 1 1 2 6 4 3 3 0 0
676 585 421 610 408 2 0 1 0 1 128 458 468 47 31 1 0 0 0 0 0 0 0 0 0 0 0 0 0 0 0 0 1 2 2 3 5 5 5 1 0 0 0
290 200 153 14 3 2 0 0 2 189 291 77 11 1 1 0 0 0 0 0 0 0 0 0 0 0 0 0 0 0 0 0 0 2 0 3 6 4 5 1 0 0 0
28 63 5 3 4 1 0 1 0 23 132 134 1 0 0 0 0 0 0 0 0 0 0 0 0 0 0 0 0 0 0 0 1 1 2 3 7 7 12 1 6 0 0
1 2 4 3 0 2 1 1 0 3 1 2 30 0 0 0 0 0 0 0 0 0 0 0 0 0 0 0 0 0 0 0 0 3 1 0 7 5 11 6 9 9 3

GFSMA_con_sbcape_279.txt.gz
CAPE
1507 1143 983 71 415 893 1652 2167 2200 2180 2175 2312 2318 2278 2176 2153 1973 1724 1307 1563 2569 2584 2707 2063 2113 1839 1178 1012 1097 1132 1510 1646 2694 2405 1571 1451 1948 2065 1594 1676 1221 909 1259
1258 686 687 1351 1623 2060 2302 2400 2526 2616 2375 2062 1033 763 1097 1628 2271 2074 1838 1931 2352 2750 2605 2703 1435 752 988 1129 1489 1684 1702 2225 2559 1937 1955 1795 1772 1732 1706 1084 1152 766 838
1636 464 1545 2290 2271 2300 2079 2149 2056 1601 1699 836 781 768 713 620 993 1977 2336 2101 2107 2643 2377 2312 1703 1365 1433 1253 1280 1366 1413 1433 1356 1551 1836 1856 1756 1715 1981 1888 1051 883 644
2235 1105 1852 2288 1996 2011 1843 2037 2069 1969 1872 1160 929 509 469 510 895 1872 2238 2341 2093 2380 1813 1906 2083 1760 1313 1251 1143 1215 1286 1341 1290 1156 1428 1502 1847 1911 1391 1149 1709 1089 726
2139 2043 1918 2294 2863 2236 1568 1742 1760 1785 1516 1120 389 451 573 588 726 1102 1514 1419 1372 1329 1571 1665 1890 1495 1061 973 1022 871 1073 976 902 1108 1250 1359 1379 1761 1917 939 1152 915 844
2250 2307 2088 2376 2491 2022 2267 1666 1803 1247 1074 1128 326 200 942 610 709 545 716 302 227 477 760 1147 1203 789 887 673 768 494 501 465 439 383 439 737 1114 1225 2019 1730 1201 1162 1269
2177 2635 1540 1869 1414 2441 2810 2755 2046 1238 1001 1109 722 449 339 718 615 389 242 184 59 55 161 384 819 613 446 864 852 476 389 346 306 236 161 174 258 868 1051 1727 1193 1101 1203
2117 1727 2082 2059 945 2450 3626 2872 2471 1784 1174 882 526 397 112 108 108 257 298 202 64 176 52 63 266 667 519 682 758 542 393 433 394 202 148 156 107 223 678 858 1531 1033 1132
1369 2021 2407 2099 1275 2492 2374 3180 2626 2454 1755 1442 361 418 350 226 146 63 71 46 148 275 207 216 287 413 457 187 577 755 474 785 464 285 100 64 49 64 139 539 662 1133 850
2004 1852 2299 2241 2300 2150 2831 3035 2647 2353 2379 1878 1257 491 325 212 357 273 150 21 60 138 176 237 380 281 132 268 225 624 666 802 439 353 184 77 44 31 45 200 597 632 594
1935 1569 1989 2489 2800 2747 2823 3132 3365 3141 2928 2826 1686 875 165 214 223 199 103 68 21 56 139 137 48 96 156 173 494 528 554 520 446 347 242 162 135 99 51 76 415 669 611
1744 2035 1816 1903 2301 2710 2751 2873 3277 3162 3209 2579 1936 185 74 13 62 127 89 64 49 90 100 53 27 55 90 158 222 229 459 489 348 300 231 181 148 135 106 78 142 717 256
1410 1617 1868 1899 1595 1919 2965 3081 3164 3362 3389 2888 2661 105 0 3 2 19 68 26 37 93 31 18 18 16 56 282 407 256 279 269 204 212 175 129 138 140 87 122 90 331 702
1485 1745 1339 1068 1077 2247 2500 2947 2954 3016 3256 3195 2404 64 55 0 0 7 18 36 7 6 21 16 10 43 112 148 185 245 214 166 127 135 124 42 26 29 71 94 114 140 407
1172 1160 1444 1698 1744 1765 2067 2381 1990 2238 2248 1972 2138 447 955 8 84 5 13 23 11 5 19 8 66 58 102 81 220 231 100 81 58 44 1 0 0 9 40 77 110 119 143
1497 1550 1601 1851 1801 1836 1699 1628 1216 1404 1911 2217 2170 1720 1731 126 29 40 11 84 11 3 4 7 8 42 77 67 173 134 155 104 52 24 0 0 0 0 10 93 104 74 119
1873 1887 1645 1679 1681 1595 1534 1636 2275 2880 2888 2550 2309 2148 2028 1512 206 210 32 68 1 5 1 5 17 51 60 126 301 53 174 222 116 5 0 0 0 4 0 6 18 41 108
2309 2192 2050 1830 1820 1833 2365 3135 2873 2408 2247 2202 2242 2337 2228 1381 690 256 127 14 2 0 5 2 9 11 13 151 182 170 213 140 191 6 0 0 0 0 0 0 0 0 0
2591 2389 2146 2204 2660 3023 2554 2219 2113 1978 1987 2019 2129 2493 2432 1764 1140 896 361 5 2 0 0 1 11 8 29 84 128 174 238 169 99 18 1 0 0 0 0 0 0 0 0
2786 2461 2751 2415 2069 1827 1727 1872 1961 2077 2268 2336 2319 1935 2020 1838 1124 625 371 4 1 0 0 4 14 11 27 49 63 71 94 87 92 64 47 31 0 0 0 0 0 0 0
2942 2274 1785 1767 1784 1750 795 455 1223 1138 1493 1385 1387 1755 1530 930 923 892 148 5 2 0 0 0 7 19 24 16 62 75 94 130 113 77 165 79 38 31 2 0 0 0 0
1543 1580 1708 1591 1098 105 0 1 1 916 1598 1613 1347 1224 547 332 127 22 0 0 0 0 0 0 0 1 19 8 35 42 41 89 75 37 28 85 51 8 6 10 0 0 0
1933 1622 819 240 3 2 1 1 0 1364 707 290 113 180 188 14 14 2 0 0 0 0 0 0 0 1 11 0 0 0 3 45 32 24 37 65 15 32 11 10 1 0 0
1636 545 97 5 2 1 0 1 108 950 840 574 172 30 8 3 0 4 0 0 0 0 0 0 0 0 1 1 0 4 4 0 0 5 12 28 10 10 15 13 0 0 0
509 280 5 5 2 2 0 1 9 293 334 609 294 3 0 0 0 0 0 0 0 0 0 0 0 0 0 0 0 7 22 1 5 3 6 10 10 21 13 6 5 0 0
367 118 7 8 2 5 0 0 0 1 3 112 310 17 0 0 0 0 0 0 0 0 0 0 0 0 0 0 0 3 45 34 0 9 3 7 13 7 20 12 9 4 0

GFSMA_con_sbcape_285.txt.gz
CAPE
1571 1525 1743 1682 1560 1484 1680 1933 1986 2439 2042 1590 1687 1930 1858 1422 1208 1478 1425 693 1417 2258 2640 2429 1894 1756 1495 1788 1740 2026 1920 1868 2304 2145 1894 1304 2060 2193 1909 1311 624 495 247
1861 1416 1841 1724 2183 1980 2043 2607 3022 3001 2158 1041 1951 729 535 381 224 231 420 2482 1263 432 936 828 528 316 611 1348 1461 1202 928 1347 2278 2799 2366 1861 1694 2009 1989 1315 572 343 269
2866 2985 2564 2736 2459 1997 2982 2551 1878 1782 2346 1551 733 579 322 160 133 490 953 1546 914 693 638 475 718 506 312 505 664 885 1493 1619 2180 2362 2466 2184 1891 1570 1755 1549 1029 807 367
2644 2820 2449 1198 1770 3275 1737 880 616 1138 1347 703 611 597 378 343 324 970 1729 2542 2447 918 102 341 413 514 472 195 213 786 822 880 1769 2298 2106 1757 2014 1776 1812 1742 1700 931 526
1784 2311 1886 2850 2322 2293 2240 1662 1099 1267 3084 945 473 308 359 399 456 743 1407 1669 1320 770 576 173 419 443 190 87 214 517 577 1001 1172 1399 1649 1701 1684 1935 1644 1643 1740 1540 743
1381 1795 2337 1823 2133 1047 2254 2041 2195 2311 2972 1407 508 746 864 416 982 1019 923 745 1019 708 430 532 602 203 99 82 162 534 670 752 889 1033 1189 1299 1559 2257 1990 1715 1770 1665 872
1297 1806 1392 1281 1644 1511 2360 2345 2236 1601 1358 1836 2787 1777 1325 1004 465 379 316 403 338 228 226 227 197 102 155 208 196 515 585 467 505 686 914 1068 1151 1437 2292 1910 1649 1727 809
1510 1803 2349 1876 2344 1920 3208 2946 2634 2343 1692 2613 1236 1335 1279 404 202 116 25 59 110 235 180 198 126 160 165 186 184 394 366 209 299 192 236 518 952 1036 1365 2134 1767 1543 1201
1893 1996 2312 2856 3027 3057 1576 3422 2925 3055 1837 1831 2031 1133 374 187 146 118 0 0 0 139 109 153 225 241 435 430 312 289 146 300 250 146 176 203 392 866 1105 1922 1770 1589 1272
2131 2144 2609 3196 3361 2997 4154 3138 2663 3834 3497 2646 2595 1526 1600 465 130 0 0 0 24 34 84 115 213 384 335 430 306 307 339 400 381 231 246 132 143 202 757 1156 1542 1474 1239
2689 2096 1968 3012 3543 3248 3892 3854 4146 4063 3014 2284 1638 2886 2228 715 247 0 0 1 23 36 99 157 239 140 62 433 315 414 313 381 519 514 499 193 176 158 152 568 1121 1127 1089
2433 3341 2250 2628 3170 3842 3968 3545 4219 4197 3602 3304 2012 2232 2291 1859 2218 13 2 1 1 33 125 228 135 98 147 416 346 359 425 529 486 629 651 346 303 242 121 195 901 1231 940
693 676 2301 2880 2516 3694 3167 3721 3794 4120 3542 3079 3207 1884 1833 2906 2564 50 1 4 4 28 44 27 98 36 94 459 302 304 446 549 552 406 352 397 332 304 201 89 443 718 973
1006 1740 1338 1817 1928 2520 2197 3185 1681 1720 3246 2375 3448 3215 2931 2134 3432 799 92 1 10 10 3 16 61 20 375 431 68 177 211 344 331 205 133 98 185 202 179 146 190 413 874
1450 2128 1197 1443 1429 1978 1770 3213 1638 2916 3028 2935 3252 3546 3581 3182 3539 1701 364 76 184 5 5 23 7 153 283 97 6 48 193 107 126 109 105 94 64 54 62 67 86 156 279
1586 1741 1886 1750 1967 1911 1799 3188 2224 2634 3592 3111 3077 2976 3608 3003 3029 2029 520 394 785 0 3 8 42 157 92 32 8 64 106 94 91 42 6 2 4 28 69 102 62 103 117
3353 3124 2953 2797 2499 2367 2253 2914 3575 3356 3162 3249 3528 2973 2971 2959 2872 1482 493 327 15 0 0 14 166 70 66 53 30 81 10 51 0 0 0 0 5 49 81 85 100 103 105
3655 3584 3474 3365 2982 2973 3486 3646 3409 3283 3117 2957 2894 2799 2668 2659 2747 2098 853 248 4 4 4 0 66 37 91 113 114 171 65 75 1 0 0 0 0 0 0 0 0 0 0
3761 3121 3790 3442 3499 3699 3617 3234 3860 3404 2745 2755 2773 2642 2470 2861 2772 2154 1589 14 6 2 15 41 59 35 154 108 72 76 181 304 43 0 0 0 0 0 0 0 0 0 0
3725 3841 3838 3129 3863 3736 3257 3278 2582 2380 2702 2954 2821 2401 2252 1871 2318 2224 134 5 2 1 2 18 22 53 91 140 99 138 198 269 24 8 2 0 0 0 0 0 0 0 0
3706 3705 3607 3600 3780 3293 763 1196 1700 2440 2711 2293 1868 1740 1745 807 271 755 41 4 0 0 45 4 11 28 89 50 111 160 187 73 133 292 19 5 2 0 0 0 0 0 0
3942 3953 3733 3653 3501 1960 0 0 0 2237 2080 1702 1730 1669 1354 915 20 0 0 0 0 0 129 15 9 22 134 83 111 58 148 110 195 488 204 57 56 47 1 12 0 0 0
4309 4163 3710 3316 2335 1078 0 0 0 1820 2030 1820 1782 1268 1011 313 2 0 0 0 0 0 3 135 252 187 144 222 146 162 226 172 266 93 136 96 110 31 21 0 0 0 0
4338 4450 3057 2425 1999 0 0 0 0 1195 1740 1068 818 1036 795 474 6 2 0 1 0 0 0 0 19 238 234 246 135 129 154 181 198 66 306 170 44 62 33 1 0 0 0
3770 2898 2421 1718 1194 1 1 0 0 1564 1467 824 515 122 266 317 0 0 10 0 0 0 0 0 0 0 2 2 4 20 7 11 76 80 80 79 127 56 22 13 0 0 0
2743 2137 1551 872 138 3 1 1 0 882 1318 734 273 145 0 0 0 0 11 6 0 0 0 0 0 0 0 0 0 112 25 50 90 64 64 72 40 27 16 14 1 0 0

GFSMA_con_sbcape_291.txt.gz
CAPE
680 1060 1786 1353 1700 1391 1533 978 860 1129 729 450 130 4 221 320 87 172 56 279 222 309 762 714 511 429 598 882 939 1074 1262 1470 1893 2063 2062 2297 1559 1597 1730 1645 1455 1220 1173
687 1056 442 592 135 124 1131 855 721 943 834 890 459 235 79 178 496 389 129 197 251 898 287 236 271 410 593 392 331 271 274 949 1399 1597 1599 1887 1907 1548 1886 2061 1273 1039 1190
1742 158 41 59 1 5 842 1664 1702 1589 1251 435 555 317 243 822 939 813 347 280 661 478 212 220 601 605 637 451 413 337 242 173 230 1222 1409 1429 1444 1649 1647 1787 1599 1327 963
1503 45 105 33 60 669 549 824 606 1143 669 422 368 379 92 1051 1196 409 609 543 239 226 106 448 347 308 732 404 460 350 191 116 487 1105 1192 1188 1293 1562 1726 1946 1907 1327 1008
1640 497 0 0 388 825 773 673 220 1510 1351 1011 676 175 138 415 627 1003 1039 301 72 152 82 154 266 190 471 331 241 327 175 182 273 207 864 1326 1390 1596 1658 1714 2019 1443 1127
1125 799 829 527 680 1435 891 384 1537 1526 1777 1716 792 1019 146 389 156 328 280 1 0 13 40 85 71 109 175 255 180 229 180 35 91 139 334 1476 1399 1315 1562 1698 1657 1358 1072
99 546 1145 699 1596 1518 1806 2111 2034 1635 1384 1308 951 335 317 300 132 0 0 0 0 0 0 1 8 7 81 216 261 192 232 235 173 188 252 974 1191 1068 1506 1580 1726 1153 1184
795 1075 766 2255 2296 2441 2519 1374 386 1184 927 908 869 306 254 77 49 0 0 0 0 0 0 7 7 3 12 13 62 148 214 285 192 203 153 304 709 1127 1175 1107 1637 1338 1121
1120 959 855 1842 2514 3071 2286 1091 885 1261 704 1118 1129 628 427 216 102 0 0 0 0 0 0 0 0 0 24 27 81 127 143 294 182 283 77 31 201 696 1221 1509 1457 1372 1180
1022 989 1404 1724 2576 2921 2068 2032 1832 1550 1076 1029 1208 1255 416 310 526 258 0 0 0 0 0 0 0 0 0 37 147 146 279 387 350 296 143 30 102 535 984 1540 1646 1720 1457
1710 1786 2010 2796 3048 3114 2929 2609 2248 2223 1876 1767 1831 1442 653 535 278 272 313 1 0 0 0 0 1 1 0 6 38 61 394 392 330 257 85 62 117 193 971 1214 1582 1788 1401
1856 1910 1824 2232 2340 2779 2755 2014 1747 1818 1665 2157 1707 1264 815 741 479 215 111 0 0 0 0 1 0 0 4 3 134 254 428 382 347 313 185 246 214 102 334 995 1479 1433 1442
1050 1436 2221 2423 2352 2703 2329 2029 1933 1577 1657 1693 1125 1052 974 647 295 74 0 0 0 0 4 0 0 0 7 2 13 210 448 436 470 534 550 685 621 211 135 554 1036 1531 1548
1883 1645 1258 1315 1250 1125 1511 1925 1977 1351 1617 1441 1337 1062 957 786 465 48 0 0 1 1 1 4 14 0 0 0 27 131 339 651 613 602 633 614 592 696 730 635 598 515 1544
1327 1083 1595 1337 1521 1233 1953 1922 1627 1423 1973 1825 1695 1609 1467 1205 1062 495 0 0 0 1 1 1 1 3 0 0 0 0 0 428 421 150 35 163 279 153 131 146 200 285 702
1767 2015 1509 1650 1846 2206 2171 1801 1892 2466 2220 2421 2216 1813 1507 1610 1068 332 174 32 0 0 0 0 15 1 0 0 0 0 0 70 149 90 78 122 83 55 72 64 65 207 393
2507 2034 2117 2414 2489 2659 2658 2764 2447 2532 2593 2041 2108 1776 1875 1573 715 344 139 143 0 0 0 0 3 0 0 0 0 0 0 0 4 80 98 86 48 111 183 202 100 186 491
2245 2273 2696 2889 3071 3196 2922 2983 2495 2047 1674 2242 2066 1778 1188 1425 721 428 106 0 0 0 0 0 1 0 0 0 0 0 0 0 0 2 77 157 123 67 47 39 6 9 8
2165 2549 2995 3254 3281 3377 3236 2951 1949 1572 1942 2151 1495 885 574 392 1120 341 1 1 0 0 0 0 1 0 0 0 0 0 0 0 0 0 33 20 0 0 0 0 0 0 0
2763 2880 3027 3770 3549 3415 2704 1561 1341 1691 2053 1363 1110 522 253 319 515 6 1 0 0 0 0 0 0 0 0 0 0 0 0 0 0 0 0 0 0 0 0 0 0 0 0
3220 3384 3523 3560 3415 1302 621 764 1107 1398 1270 1220 750 211 32 259 217 0 0 0 0 0 0 0 0 0 0 0 0 0 0 0 0 0 0 0 0 0 0 0 0 0 0
3275 3457 3604 3783 955 93 1 1 102 1272 1181 755 553 193 0 0 0 0 0 0 0 0 0 0 0 0 0 0 0 0 0 0 0 0 0 0 0 0 0 0 0 0 0
3566 3814 3637 3239 77 0 0 0 1 362 880 384 245 246 0 0 0 0 0 0 0 0 0 1 0 0 0 0 0 0 0 1 3 0 0 0 0 0 0 0 0 0 0
3611 3705 3815 848 0 0 0 0 0 132 468 245 346 272 3 0 0 0 0 0 0 0 0 0 0 0 0 0 0 0 0 0 0 0 0 0 0 0 0 0 0 0 0
3696 3935 2334 262 0 0 0 0 0 434 421 47 0 0 93 0 0 0 0 0 0 0 0 0 0 0 0 0 0 0 0 0 0 4 0 0 0 0 0 0 0 0 0
4016 3252 1627 235 0 0 0 0 0 777 444 14 0 0 0 0 0 0 0 0 0 0 0 0 0 0 0 0 0 0 0 0 0 0 0 2 0 0 0 0 0 0 0